Cloud_Cover
63 90 5 0 0 2 2 0 0 0 0 1 4 5 5 5 5 34 27 10 7 5 5 5 5 72 99 94 5 5 5 5 19
5 2 63 85 8 3 0 0 6 0 1 0 0 0 5 7 14 22 82 98 45 18 5 5 7 5 93 87 41 10 22 36 14
0 2 0 0 4 4 10 3 3 0 0 0 1 0 14 38 4 4 5 71 99 99 92 100 100 100 98 5 14 30 38 72 80
0 0 0 0 0 0 1 8 16 5 4 0 0 4 33 100 44 5 3 5 10 71 100 100 93 97 100 100 97 84 90 100 100
0 0 0 0 0 0 0 0 0 0 5 5 5 7 5 55 100 100 9 1 3 5 6 24 32 100 100 100 100 100 100 100 100
2 3 4 2 1 4 5 0 0 0 0 2 3 8 62 12 43 65 99 21 5 5 1 1 4 5 8 4 31 84 100 100 100
5 9 5 5 5 5 5 40 55 9 0 0 2 4 72 75 24 5 0 52 16 5 5 7 3 2 1 74 0 0 1 0 4
0 0 1 5 5 1 1 0 26 27 15 5 15 10 49 74 39 5 6 5 47 13 5 5 5 5 34 54 4 0 0 3 4
0 0 0 0 0 0 0 0 0 6 45 53 42 2 22 66 48 26 0 24 14 69 20 38 70 19 5 17 82 5 0 1 4
0 0 0 0 0 0 0 0 0 2 7 39 69 22 4 28 69 48 2 5 76 70 32 25 6 81 92 21 7 26 5 4 5
0 0 0 0 0 0 0 0 0 0 14 34 87 55 24 15 42 23 20 17 20 100 58 5 25 23 100 85 96 14 5 5 7
1 0 0 0 0 0 0 0 0 9 3 17 65 74 66 61 93 73 58 94 100 97 100 77 13 16 81 84 100 83 63 6 5
100 97 68 22 16 9 0 0 0 0 0 0 0 51 100 100 100 98 100 100 100 100 100 100 86 84 48 99 71 99 79 27 10
8 45 16 14 16 0 5 24 15 6 0 0 0 0 42 100 100 100 100 100 100 100 100 100 100 98 96 100 99 100 95 100 38
24 6 73 100 100 96 27 8 30 36 13 0 0 61 61 49 37 67 100 100 100 100 100 100 100 100 100 100 100 94 100 100 100
0 22 100 100 100 100 100 51 90 33 22 1 0 0 53 100 29 53 100 97 51 100 100 100 100 100 100 94 100 100 100 100 100
0 1 30 46 100 100 100 100 100 53 15 31 26 14 2 0 0 26 91 98 99 94 100 100 100 100 100 100 100 99 100 100 100
0 0 4 21 81 92 82 99 100 100 80 23 93 80 14 3 20 61 92 100 100 100 100 100 100 100 100 100 100 100 98 100 100
0 0 0 0 22 42 50 54 93 100 100 98 41 48 82 78 3 18 44 61 100 100 100 100 100 100 100 98 100 100 100 100 100
0 0 0 0 5 0 29 21 35 100 100 100 100 77 99 100 100 100 96 30 30 81 100 100 100 100 100 100 100 100 100 100 100